Lid_Strength_Index
-1 -1 -1 1 6 6 9 9 6 7 7 5 5 6 6 6 7 10 1 -0 -1 -1 -1 -1 -1 -1 -1 -1 -1 -1 -1 -1 -1 -1 -1 -1 -1 -1 -1 -1 -1 -1 -1 -1 -1 -1 -1 -1 -1
-1 -0 1 3 7 9 9 7 7 6 5 5 5 5 6 8 3 3 2 -0 -1 -1 -1 -2 -1 -1 -1 -1 -1 -1 -1 -1 -1 -1 -1 -1 -1 -1 -1 -1 -1 -1 -1 -1 -1 -1 -1 -1 -1
-0 0 3 4 6 9 9 7 6 5 5 5 6 4 5 6 3 2 0 -0 -1 -1 -1 -2 -1 -1 -1 -1 -1 -1 -1 -1 -1 -1 -1 -1 -1 -1 -1 -1 -1 -1 -1 -1 -1 -1 -1 -1 -1
1 1 2 6 8 7 7 6 5 6 5 4 4 6 4 2 3 1 -0 -1 -0 -1 -1 -1 -1 -1 -1 -1 -1 -1 -1 -1 -1 -1 -1 -1 -1 -1 -1 -1 -1 -1 -1 -1 -1 -1 -1 -1 -1
1 2 5 7 8 7 6 5 5 5 5 5 4 6 5 2 0 -0 -0 -0 -0 -1 -1 -1 -1 -1 -1 -1 -1 -1 -1 -1 -1 -1 -1 -1 -1 -1 -1 -1 -1 -1 -1 -1 -1 -1 -1 -1 -1
3 3 7 9 8 7 5 4 5 5 5 5 5 5 5 1 1 0 -0 -0 -1 -1 -1 -1 -1 -1 -1 -1 -1 -1 -2 -2 -1 -1 -1 -1 -1 -1 -1 -1 -1 -1 -1 -1 -1 -1 -1 -1 -1
4 5 7 7 8 7 6 4 5 5 5 5 4 6 4 2 1 0 -0 -1 -1 -1 -1 -1 -1 -1 -1 -1 -1 -1 -1 -1 -1 -1 -1 -1 -1 -1 -1 -1 -1 -1 -1 -1 -2 -2 -2 -2 -1
3 4 7 7 8 8 5 5 4 4 5 3 3 6 6 3 1 0 -0 -0 -1 -1 -1 -1 -2 -1 -1 -2 -1 -1 -1 -1 -1 -1 -1 -1 -1 -1 -1 -2 -2 -1 -1 -1 -1 -2 -2 -1 -2
3 6 7 7 7 6 4 5 4 3 4 4 3 3 2 1 1 1 1 1 0 -0 -1 -1 -1 -1 -2 -1 -1 -1 -1 -1 -2 -1 -1 -1 -2 -2 -2 -2 -2 -1 -1 -1 -2 -2 -1 -2 -2
4 5 6 5 4 5 5 5 4 4 4 4 4 3 2 2 1 2 2 2 1 1 0 -1 -1 -1 -1 -2 -2 -2 -2 -2 -2 -2 -2 -1 -2 -2 -2 -2 -2 -1 -1 -1 -2 -2 -1 -1 -1
4 5 5 5 4 4 5 5 4 5 5 4 4 4 3 2 2 2 2 2 1 0 -0 -0 -1 -1 -1 -1 -2 -2 -2 -2 -2 -2 -2 -2 -1 -2 -1 -1 -1 -2 -2 -2 -2 -1 -1 -1 -1
5 4 5 4 4 4 5 4 5 4 4 3 2 2 2 3 2 2 2 2 1 1 0 -0 -1 -1 -1 -2 -1 -2 -1 -2 -2 -2 -2 -2 -1 -2 -1 -1 -1 -2 -2 -1 -2 -1 -1 -1 -1
5 5 4 4 4 4 4 5 5 4 4 3 2 3 3 3 2 2 1 1 1 1 0 -0 -1 -1 -1 -2 -2 -1 -1 -2 -2 -2 -2 -2 -1 -1 -1 -1 -1 -2 -2 -1 -1 -1 -1 -1 -1
5 4 4 4 4 4 5 5 5 4 3 3 3 3 3 3 2 2 1 1 1 0 -0 -1 -1 -1 -1 -1 -2 -2 -2 -2 -2 -2 -2 -2 -2 -2 -1 -1 -1 -1 -2 -2 -1 -1 -1 -1 -1
4 5 5 5 5 5 4 7 6 4 4 4 4 3 3 3 2 2 1 1 0 -0 -0 -1 -1 -1 -1 -1 -1 -2 -2 -2 -2 -2 -2 -2 -2 -2 -2 -1 -1 -1 -2 -2 -2 -1 -1 -1 -1
5 5 7 5 5 5 5 7 5 4 4 5 4 4 4 3 2 1 1 0 0 -0 -0 -1 -1 -1 -1 -1 -1 -1 -2 -2 -2 -2 -2 -2 -2 -2 -2 -1 -1 -2 -2 -1 -1 -1 -0 -0 -0
6 7 8 7 5 5 5 7 5 4 4 5 5 4 4 3 2 1 1 1 0 0 0 0 -1 -1 -1 -2 -2 -2 -2 -2 -2 -2 -2 -2 -2 -2 -2 -1 -1 -2 -1 -1 -1 -1 -0 0 0
8 8 7 8 6 5 6 6 5 4 5 5 5 4 4 4 3 1 1 0 -0 0 -0 -1 -1 -1 -1 -1 -2 -1 -1 -1 -2 -1 -2 -2 -2 -2 -2 -2 -2 -2 -1 -1 -1 -1 -1 -0 0
6 7 8 6 5 6 6 6 5 4 5 5 5 5 4 4 2 1 1 1 0 0 -0 -1 -1 -1 -1 -0 0 -0 0 -1 -1 -1 -2 -2 -2 -2 -2 -1 -2 -2 -1 -1 -1 -1 -1 -0 -1
7 8 8 6 6 6 6 6 6 5 5 5 5 5 4 3 2 2 1 1 1 0 -0 -0 -1 -1 -1 -0 -1 -0 -0 -1 -1 -1 -2 -2 -2 -2 -2 -2 -1 -1 -1 -1 -1 -1 0 0 -0
7 7 8 8 6 5 6 7 7 6 5 5 4 4 3 3 3 2 2 1 1 1 0 -0 -0 -1 -1 -1 -1 -0 -1 -0 -0 -0 -1 -1 -2 -2 -2 -2 -1 -1 -1 -0 -1 -1 -1 1 0
8 6 7 7 8 10 6 10 8 7 7 6 5 5 4 3 3 2 2 1 1 1 -0 -0 -0 -1 -1 -1 -1 -0 1 1 0 -0 -1 -1 -2 -2 -2 -2 -2 -1 -1 -1 -1 -1 -0 -0 1
7 6 6 7 8 8 8 9 8 7 7 6 5 5 4 3 3 2 2 1 1 0 0 -0 -1 -1 -1 -1 -1 -0 -0 0 -0 -0 -1 -1 -1 -1 -1 -1 -1 -1 -1 -1 -1 -1 -0 -0 1
5 6 6 7 8 11 9 9 9 7 7 6 5 4 4 3 3 2 2 1 1 0 0 -0 -0 -1 -1 -1 -1 -1 -0 0 1 0 1 1 1 0 -0 -1 -1 -1 -1 -1 -1 -1 -1 -0 0
6 7 10 11 10 11 8 9 8 7 6 6 5 5 4 3 3 3 2 2 2 1 1 0 -0 -0 -1 -1 -1 -1 -1 -0 0 1 1 1 2 1 0 0 1 1 0 0 -0 -0 -0 -0 0
7 7 10 14 13 11 8 10 9 5 5 4 4 4 4 3 3 3 2 3 2 2 1 0 0 0 -0 -0 -1 -1 -0 1 1 1 1 1 2 2 1 1 1 1 1 1 -0 -0 -0 -1 -0
7 8 7 10 9 11 9 8 6 5 5 5 5 4 4 3 3 3 3 2 2 1 1 0 0 0 -0 -0 0 0 0 1 1 1 1 1 1 2 2 2 1 1 1 2 0 0 -0 -0 0
6 6 10 9 14 14 10 10 8 7 7 5 5 5 4 3 3 3 3 2 1 1 0 0 0 1 1 1 1 1 1 2 1 1 2 1 2 2 2 2 2 2 1 0 1 0 -0 0 0
7 8 8 8 10 13 13 10 6 7 6 5 5 4 4 4 4 3 3 2 2 1 1 1 1 1 1 1 1 2 2 2 2 3 2 2 2 2 3 4 3 2 1 1 1 1 1 1 1
6 8 8 10 12 10 11 11 5 5 5 5 5 4 4 4 3 3 3 2 1 1 1 2 1 1 1 1 2 2 2 3 3 3 2 3 3 4 4 4 4 3 2 0 1 2 1 2 2